loading
DOY 171 | 2024-06-19T23:03:21Z

THOR ABLESTAR DEB, 660

Orbit data source: Space-Track

THOR ABLESTAR DEB, 660 is space debris in LEO originally from a launch on Thu, 29 Jun 1961 UTC launched from the Air Force Eastern Test Range (AFETR). Debris objects in space refer to the collection of defunct objects orbiting the Earth. Examples of debris include non-operational satellites, rocket bodies, and fragments generated from explosions, collisions, or faulty payload assembly.

Loading next visibility...
Loading greatness...
THOR ABLESTAR DEB details
NORAD ID660
COSPAR ID
1961-015HM
Orbit
LEO
Last TLE update16 hours ago
Origin
Flag of USUSAF SSD (US)
ManufacturerUnknown
BusUnknown
MotorUnknown
MassWet unknown, Dry mass unknown
Launch date (UTC)
1961-06-29 (63 years ago)
Launch vehicleUnknown
Launch site
Air Force Eastern Test Range (AFETR)
Object type
Payload
Rocket body
Debris
Radar Cross SectionSmall (<0.1 m²)
Predictive object data (real-time)
Latitude60.83724°
Longitude-103.34277°
Altitude665.145 km
Speed7.525 km/s
Apparent Right ascension20h 16m 36s
Apparent Declination16° 00' 53"
Sunlit
Object is in daylight
Predictive observer data (real-time)
Local Sidereal Time09:57:31
Azimuth28.035° NE
Elevation-29.331°
Doppler factor1
Orbital elements
Apogee667.478 km
Perigee618.695 km
Semi-major axis7,021.223 km
Eccentricity0.003474
Inclination66.5131°
RAAN139.4514°
Arg. of periapsis351.6292°
True anomaly121.68572°
Mean anomaly121.3465°
Mean motion3.68913 °/min
BSTAR0.0017183
Period97.58 mins
Definitive object data (Epoch: 2024-06-19T06:48:29.831Z)
Latitude57.50084°
Longitude-93.3865°
Altitude666.275 km
Speed7.523 km/s
True Right ascension18h 26m 55s
True Declination57° 20' 34"
Sunlit
Object was in daylight at TLE epoch
TLE from 16 hours ago
0 THOR ABLESTAR DEB
1 00660U 61015HM  24171.28367860  .00011642  00000-0  17183-2 0  9996
2 00660  66.5131 139.4514 0034740 351.6292 121.3465 14.75134849276563
Epoch: 2024-06-19T06:48Z
No data available

THOR ABLESTAR DEB Visibility forecast

Observer location: 39.9160978°, -105.1181434, 0m alt.

THOR ABLESTAR DEB is not visible in the next 10 days
Span
Click to sort rows by Start time (UTC) header in descending order
Start Az.
Max El. time (UTC)
Max El. Az.
Max El.
End time (UTC)
End Az.